| time (UTC) | temp F | wind direction | speed MPH | gust MPH | rain 1hr in | rain 24hr in | rain mn in | humidity % | barometer mb |
| 20260503001548 | 50 | 11 | 0.0 | 3.0 | 0.03 | 0.39 | 0.39 | 100 | 1010.2 |
| 20260503000049 | 50 | 28 | 0.0 | 4.0 | 0.03 | 0.38 | 0.38 | 100 | 1010.0 |
| 20260502234554 | 50 | 0 | 1.0 | 3.0 | 0.03 | 0.38 | 0.38 | 100 | 1010.1 |
| 20260502233044 | 51 | 36 | 0.0 | 3.0 | 0.02 | 0.37 | 0.37 | 100 | 1010.2 |
| 20260502231600 | 50 | 18 | 1.0 | 3.0 | 0.01 | 0.36 | 0.36 | 100 | 1010.0 |
| 20260502230047 | 50 | 16 | 1.0 | 4.0 | 0.01 | 0.35 | 0.35 | 100 | 1010.1 |
| 20260502224546 | 50 | 117 | 0.0 | 5.0 | 0.02 | 0.35 | 0.35 | 100 | 1009.8 |
| 20260502223047 | 50 | 0 | 1.0 | 4.0 | 0.02 | 0.35 | 0.35 | 100 | 1009.7 |
| 20260502221546 | 51 | 74 | 1.0 | 3.0 | 0.03 | 0.35 | 0.35 | 100 | 1009.8 |
| 20260502220043 | 51 | 56 | 1.0 | 3.0 | 0.02 | 0.34 | 0.34 | 100 | 1009.9 |
| 20260502214548 | 51 | 0 | 1.0 | 6.0 | 0.02 | 0.33 | 0.33 | 100 | 1010.0 |
| 20260502213053 | 51 | 0 | 0.0 | 3.0 | 0.02 | 0.33 | 0.33 | 99 | 1010.1 |
| 20260502211546 | 51 | 17 | 1.0 | 4.0 | 0.03 | 0.32 | 0.32 | 99 | 1010.1 |
| 20260502210044 | 51 | 32 | 1.0 | 3.0 | 0.07 | 0.32 | 0.32 | 98 | 1010.2 |
| 20260502204617 | 51 | 34 | 0.0 | 3.0 | 0.10 | 0.31 | 0.31 | 98 | 1010.4 |
| 20260502203042 | 51 | 0 | 1.0 | 5.0 | 0.13 | 0.31 | 0.31 | 98 | 1010.3 |
| 20260502201546 | 51 | 0 | 1.0 | 4.0 | 0.13 | 0.29 | 0.29 | 97 | 1010.2 |
| 20260502200041 | 51 | 333 | 1.0 | 3.0 | 0.09 | 0.25 | 0.25 | 97 | 1010.3 |
| 20260502194547 | 51 | 55 | 1.0 | 4.0 | 0.05 | 0.21 | 0.21 | 96 | 1010.4 |
| 20260502193051 | 51 | 5 | 1.0 | 3.0 | 0.02 | 0.18 | 0.18 | 95 | 1010.3 |
| 20260502191548 | 51 | 55 | 1.0 | 5.0 | 0.00 | 0.16 | 0.16 | 95 | 1010.2 |
| 20260502190041 | 51 | 40 | 2.0 | 8.0 | 0.06 | 0.16 | 0.16 | 94 | 1010.3 |
| 20260502184555 | 50 | 355 | 2.0 | 6.0 | 0.08 | 0.16 | 0.16 | 94 | 1010.6 |
| 20260502183048 | 50 | 316 | 4.0 | 8.0 | 0.08 | 0.16 | 0.16 | 91 | 1010.7 |
| 20260502181547 | 50 | 25 | 5.0 | 8.0 | 0.07 | 0.15 | 0.15 | 88 | 1010.8 |
| 20260502180104 | 50 | 21 | 1.0 | 4.0 | 0.02 | 0.10 | 0.10 | 83 | 1010.7 |
| 20260502163043 | 50 | 336 | 2.0 | 5.0 | 0.00 | 0.08 | 0.08 | 86 | 1010.9 |
| 20260502161544 | 50 | 0 | 0.0 | 3.0 | 0.00 | 0.08 | 0.08 | 88 | 1011.1 |
| 20260502151551 | 50 | 82 | 1.0 | 3.0 | 0.00 | 0.08 | 0.08 | 93 | 1011.3 |
| 20260502123049 | 45 | 56 | 2.0 | 10.0 | 0.01 | 0.05 | 0.05 | 88 | 1012.1 |
| 20260502121550 | 45 | 5 | 2.0 | 5.0 | 0.01 | 0.05 | 0.05 | 87 | 1011.7 |
| 20260502114550 | 43 | 339 | 2.0 | 6.0 | 0.04 | 0.04 | 0.04 | 87 | 1011.6 |
| 20260502113047 | 43 | 21 | 1.0 | 5.0 | 0.04 | 0.04 | 0.04 | 84 | 1011.9 |
| 20260502111600 | 42 | 104 | 1.0 | 4.0 | 0.04 | 0.04 | 0.04 | 80 | 1012.1 |
| 20260502110047 | 42 | 29 | 1.0 | 6.0 | 0.01 | 0.01 | 0.01 | 74 | 1012.0 |
| 20260502104547 | 42 | 350 | 1.0 | 3.0 | 0.00 | 0.00 | 0.00 | 69 | 1011.9 |
| 20260502103059 | 43 | 351 | 1.0 | 4.0 | 0.00 | 0.00 | 0.00 | 68 | 1011.7 |
| 20260502101540 | 42 | 88 | 2.0 | 6.0 | 0.00 | 0.00 | 0.00 | 65 | 1011.5 |
| 20260502070048 | 43 | 0 | 0.0 | 0.0 | 0.00 | 0.00 | 0.00 | 46 | 1012.2 |
| 20260502064551 | 43 | 0 | 0.0 | 0.0 | 0.00 | 0.00 | 0.00 | 47 | 1012.0 |
| 20260502063048 | 42 | 0 | 0.0 | 0.0 | 0.00 | 0.00 | 0.00 | 47 | 1011.5 |
| 20260502061545 | 42 | 0 | 0.0 | 0.0 | 0.00 | 0.00 | 0.00 | 46 | 1011.5 |
| 20260502060051 | 42 | 0 | 0.0 | 0.0 | 0.00 | 0.00 | 0.00 | 49 | 1011.3 |
| 20260502054543 | 42 | 0 | 0.0 | 0.0 | 0.00 | 0.00 | 0.00 | 46 | 1011.2 |
| 20260502053048 | 42 | 0 | 0.0 | 0.0 | 0.00 | 0.00 | 0.00 | 47 | 1011.2 |
| 20260502051549 | 42 | 0 | 0.0 | 0.0 | 0.00 | 0.00 | 0.00 | 47 | 1011.4 |
| 20260502050046 | 43 | 0 | 0.0 | 0.0 | 0.00 | 0.00 | 0.00 | 48 | 1011.1 |
| 20260502044542 | 42 | 0 | 0.0 | 2.0 | 0.00 | 0.00 | 0.00 | 45 | 1011.2 |
| 20260502043041 | 42 | 105 | 0.0 | 1.0 | 0.00 | 0.00 | 0.00 | 46 | 1011.2 |
| 20260502041541 | 43 | 0 | 0.0 | 1.0 | 0.00 | 0.00 | 0.00 | 44 | 1011.0 |
| 20260502040049 | 44 | 0 | 0.0 | 2.0 | 0.00 | 0.00 | 0.00 | 44 | 1010.9 |
| 20260502034547 | 44 | 0 | 0.0 | 0.0 | 0.00 | 0.00 | 0.00 | 42 | 1010.9 |
| 20260502033049 | 45 | 0 | 0.0 | 2.0 | 0.00 | 0.00 | 0.00 | 41 | 1010.9 |
| 20260502031545 | 45 | 113 | 0.0 | 2.0 | 0.00 | 0.00 | 0.00 | 40 | 1010.9 |
| 20260502030052 | 46 | 0 | 0.0 | 4.0 | 0.00 | 0.00 | 0.00 | 40 | 1010.9 |
| 20260502024551 | 46 | 0 | 0.0 | 0.0 | 0.00 | 0.00 | 0.00 | 39 | 1010.8 |
| 20260502023049 | 46 | 0 | 0.0 | 0.0 | 0.00 | 0.00 | 0.00 | 39 | 1010.8 |
| 20260502021542 | 47 | 0 | 0.0 | 0.0 | 0.00 | 0.00 | 0.00 | 38 | 1010.9 |
| 20260502020043 | 46 | 0 | 0.0 | 0.0 | 0.00 | 0.00 | 0.00 | 38 | 1011.0 |
| 20260502014550 | 46 | 0 | 0.0 | 1.0 | 0.00 | 0.00 | 0.00 | 39 | 1011.0 |
| 20260502013049 | 46 | 325 | 0.0 | 2.0 | 0.00 | 0.00 | 0.00 | 40 | 1010.9 |
| 20260502011548 | 47 | 0 | 0.0 | 1.0 | 0.00 | 0.00 | 0.00 | 38 | 1010.9 |
| 20260502010052 | 48 | 0 | 0.0 | 0.0 | 0.00 | 0.00 | 0.00 | 39 | 1010.8 |
| 20260502004601 | 49 | 0 | 0.0 | 0.0 | 0.00 | 0.00 | 0.00 | 34 | 1010.6 |
| 20260502003049 | 49 | 0 | 0.0 | 0.0 | 0.00 | 0.00 | 0.00 | 33 | 1010.3 |